1501192800.17,4874,18.75,73578.3,1.81,0.87,0.83,0,*4E
1501192801.39,4875,18.75,73574.8,1.83,0.91,0.87,0,*4E
1501192802.63,4876,18.75,73578.8,1.81,0.87,0.87,0,*48
1501192803.86,4877,18.75,73576.5,1.81,0.75,0.83,0,*40
1501192805.1,4878,18.75,73578.3,1.81,0.83,0.75,0,*4F
1501192806.34,4879,18.75,73578.8,1.81,0.83,0.83,0,*47
1501192807.56,4880,18.75,73578.5,1.83,0.91,0.87,0,*44
1501192808.78,4881,18.75,73576.0,1.79,0.91,0.79,0,*41
1501192810.01,4882,18.75,73578.5,1.81,0.95,0.95,0,*43
1501192811.25,4883,18.75,73578.5,1.81,0.87,0.87,0,*42
1501192812.47,4884,18.75,73580.0,1.83,0.87,0.91,0,*40
1501192813.7,4885,18.75,73576.5,1.81,0.83,0.87,0,*40
1501192814.94,4886,18.75,73578.3,1.81,0.83,0.95,0,*40
1501192816.17,4887,18.75,73576.5,1.81,0.83,0.83,0,*46
1501192817.41,4888,18.75,73578.5,1.81,0.83,0.83,0,*49
1501192818.65,4889,18.75,73578.5,1.81,0.83,0.83,0,*48
1501192819.88,4890,18.75,73580.0,1.81,0.83,0.83,0,*40
1501192821.12,4891,18.75,73578.5,1.81,0.83,0.83,0,*41
1501192822.35,4892,18.75,73578.5,1.81,0.95,0.95,0,*42
1501192823.59,4893,18.75,73578.3,1.81,0.95,0.87,0,*40
1501192824.83,4894,18.75,73576.0,1.81,0.87,0.87,0,*44
1501192826.06,4895,18.75,73578.0,1.81,0.95,0.87,0,*46
1501192827.28,4896,18.75,73578.3,1.79,0.87,0.83,0,*45
1501192828.51,4897,18.75,73578.5,1.79,0.91,0.91,0,*40
1501192829.74,4898,18.75,73576.8,1.81,0.87,0.95,0,*4B
1501192830.98,4899,18.75,73576.3,1.81,0.87,0.87,0,*49
1501192832.22,4900,18.75,73574.3,1.81,0.83,0.87,0,*4C
1501192833.46,4901,18.75,73578.8,1.81,0.83,0.87,0,*4D
1501192834.7,4902,18.75,73576.5,1.81,0.87,0.83,0,*4E
1501192835.93,4903,18.75,73578.8,1.81,0.75,0.83,0,*42
1501192837.16,4904,18.75,73576.8,1.81,0.71,0.75,0,*48
1501192838.38,4905,18.75,73576.0,1.79,0.79,0.79,0,*4A
1501192839.6,4906,18.75,73576.3,1.79,0.79,0.79,0,*49
1501192840.81,4907,18.75,73576.8,1.79,0.71,0.71,0,*48
1501192842.05,4908,18.75,73576.0,1.81,0.83,0.83,0,*40
1501192843.28,4909,18.75,73578.3,1.81,0.83,0.83,0,*41
1501192844.52,4910,18.75,73578.0,1.81,0.83,0.83,0,*49
1501192845.74,4911,18.75,73576.0,1.79,0.79,0.79,0,*4F
1501192846.96,4912,18.75,73578.5,1.79,0.79,0.79,0,*4C
1501192848.19,4913,18.75,73578.3,1.81,0.83,0.87,0,*4E
1501192849.43,4914,18.75,73576.0,1.81,0.83,0.83,0,*4D
1501192850.65,4915,18.75,73580.8,1.79,0.79,0.79,0,*4B
1501192851.86,4916,18.75,73576.8,1.79,0.71,0.71,0,*48
1501192853.1,4917,18.75,73576.0,1.81,0.83,0.75,0,*47
1501192854.33,4918,18.75,73578.5,1.81,0.71,0.71,0,*41
1501192855.56,4919,18.75,73580.0,1.81,0.75,0.83,0,*49
1501192856.79,4920,18.75,73580.3,1.81,0.75,0.83,0,*43
1501192858.03,4921,18.75,73576.8,1.81,0.75,0.75,0,*4B
1501192859.24,4922,18.75,73578.5,1.79,0.71,0.79,0,*47
1501192860.46,4923,18.75,73576.8,1.79,0.79,0.71,0,*46
1501192861.67,4924,18.75,73572.8,1.79,0.79,0.79,0,*49
1501192862.89,4925,18.75,73578.0,1.79,0.71,0.71,0,*48
1501192864.1,4926,18.75,73578.3,1.79,0.71,0.71,0,*4B
1501192865.31,4927,18.75,73576.0,1.79,0.71,0.79,0,*42
1501192866.52,4928,18.75,73576.3,1.83,0.75,0.75,0,*40
1501192867.75,4929,18.75,73576.5,1.81,0.71,0.63,0,*40
1501192868.96,4930,18.75,73574.3,1.79,0.59,0.67,0,*41
1501192870.17,4931,18.75,73576.3,1.79,0.63,0.47,0,*4B
1501192871.42,4932,18.75,73576.8,1.77,0.59,0.55,0,*4C
1501192872.65,4933,18.75,73578.5,1.81,0.71,0.71,0,*48
1501192873.87,4934,18.75,73576.0,1.79,0.79,0.71,0,*40
1501192875.11,4935,18.75,73576.5,1.77,0.79,0.79,0,*47
1501192876.35,4936,18.75,73578.3,1.77,0.71,0.79,0,*4C
1501192877.56,4937,18.75,73576.5,1.79,0.71,0.71,0,*4B
1501192878.77,4938,18.75,73578.3,1.79,0.71,0.67,0,*43
1501192880.01,4939,18.75,73578.0,1.77,0.79,0.79,0,*4B
1501192881.25,4940,18.75,73578.5,1.77,0.71,0.71,0,*45
1501192882.5,4941,18.75,73576.5,1.77,0.79,0.79,0,*44
1501192883.74,4942,18.75,73576.5,1.77,0.79,0.75,0,*4B
1501192884.98,4943,18.75,73578.3,1.77,0.83,0.79,0,*43
1501192886.23,4944,18.75,73576.0,1.77,0.91,0.83,0,*42
1501192887.44,4945,18.75,73576.8,1.75,0.75,0.75,0,*42
1501192888.68,4946,18.75,73576.8,1.77,0.71,0.79,0,*4B
1501192889.92,4947,18.75,73578.5,1.77,0.71,0.71,0,*42
1501192891.16,4948,18.75,73578.8,1.77,0.79,0.79,0,*4D
1501192892.41,4949,18.75,73572.8,1.77,0.79,0.79,0,*4C
1501192893.62,4950,18.75,73578.8,1.75,0.75,0.75,0,*46
1501192894.86,4951,18.75,73578.3,1.77,0.71,0.79,0,*4D
1501192896.07,4952,18.75,73576.0,1.79,0.79,0.67,0,*47
1501192897.29,4953,18.75,73578.3,1.79,0.71,0.59,0,*43
1501192898.53,4954,18.75,73578.3,1.77,0.79,0.71,0,*48
1501192899.77,4955,18.75,73574.5,1.77,0.83,0.79,0,*44
1501192901.02,4956,18.75,73578.3,1.77,0.79,0.71,0,*4A
1501192902.23,4957,18.75,73576.3,1.75,0.75,0.75,0,*41
1501192903.43,4958,18.75,73576.0,1.75,0.75,0.67,0,*4D
1501192904.67,4959,18.75,73576.5,1.77,0.75,0.67,0,*4E
1501192905.91,4960,18.75,73576.0,1.77,0.71,0.71,0,*47
1501192907.14,4961,18.75,73576.8,1.77,0.67,0.59,0,*4B
1501192908.36,4962,18.75,73576.8,1.75,0.79,0.67,0,*48
1501192909.56,4963,18.75,73578.5,1.79,0.67,0.67,0,*4A
1501192910.79,4964,18.75,73578.8,1.81,0.75,0.71,0,*4E
1501192911.99,4965,18.75,73576.3,1.75,0.67,0.67,0,*40
1501192913.24,4966,18.75,73576.5,1.77,0.79,0.71,0,*49
1501192914.47,4967,18.75,73576.8,1.77,0.71,0.79,0,*48
1501192915.68,4968,18.75,73578.5,1.75,0.67,0.67,0,*4D
1501192916.88,4969,18.75,73578.3,1.75,0.75,0.67,0,*4F
1501192918.1,4970,18.75,73578.5,1.75,0.75,0.75,0,*44
1501192919.34,4971,18.75,73578.5,1.77,0.83,0.79,0,*42
1501192920.58,4972,18.75,73576.0,1.77,0.83,0.83,0,*44
1501192921.8,4973,18.75,73578.8,1.75,0.79,0.75,0,*4B
1501192923.02,4974,18.75,73574.5,1.75,0.79,0.75,0,*4C
1501192924.26,4975,18.75,73576.8,1.77,0.79,0.67,0,*4C
1501192925.5,4976,18.75,73576.5,1.77,0.79,0.71,0,*48
1501192926.74,4977,18.75,73578.8,1.77,0.79,0.79,0,*41
1501192927.96,4978,18.75,73578.3,1.75,0.79,0.75,0,*40
1501192929.18,4979,18.75,73574.3,1.75,0.79,0.79,0,*4D
1501192930.39,4980,18.75,73578.3,1.75,0.75,0.79,0,*47
1501192931.63,4981,18.75,73578.0,1.77,0.79,0.79,0,*48
1501192932.87,4982,18.75,73576.0,1.77,0.71,0.71,0,*4B
1501192934.08,4983,18.75,73576.3,1.75,0.75,0.67,0,*4B
1501192935.32,4984,18.75,73576.5,1.77,0.71,0.75,0,*49
1501192936.56,4985,18.75,73576.0,1.77,0.71,0.71,0,*4C
1501192937.76,4986,18.75,73572.8,1.75,0.67,0.67,0,*4D
1501192938.97,4987,18.75,73574.5,1.75,0.67,0.75,0,*4F
1501192940.18,4988,18.75,73572.5,1.75,0.75,0.75,0,*43
1501192941.39,4989,18.75,73578.3,1.75,0.75,0.67,0,*41
1501192942.63,4990,18.75,73576.5,1.77,0.71,0.71,0,*48
1501192943.86,4991,18.75,73582.0,1.77,0.71,0.67,0,*4E
1501192945.07,4992,18.75,73576.5,1.75,0.67,0.67,0,*48
1501192946.27,4993,18.75,73576.5,1.75,0.67,0.67,0,*49
1501192947.48,4994,18.75,73580.8,1.75,0.67,0.75,0,*4D
1501192948.72,4995,18.75,73576.3,1.77,0.79,0.83,0,*48
1501192949.93,4996,18.75,73576.0,1.75,0.67,0.79,0,*43
1501192951.13,4997,18.75,73576.5,1.75,0.67,0.67,0,*4D
1501192952.35,4998,18.75,73576.8,1.75,0.79,0.79,0,*42
1501192953.56,4999,18.75,73576.5,1.75,0.75,0.75,0,*43
1501192954.76,5000,18.75,73572.0,1.75,0.67,0.67,0,*4B
1501192955.97,5001,18.75,73576.8,1.75,0.67,0.63,0,*4E
1501192957.17,5002,18.75,73572.5,1.75,0.67,0.67,0,*49
1501192958.38,5003,18.75,73576.0,1.75,0.67,0.75,0,*4B
1501192959.59,5004,18.75,73572.5,1.75,0.75,0.75,0,*4F
1501192960.81,5005,18.75,73574.3,1.75,0.79,0.67,0,*41
1501192962.05,5006,18.75,73576.0,1.77,0.83,0.83,0,*4F
1501192963.26,5007,18.75,73578.3,1.75,0.79,0.79,0,*4C
1501192964.47,5008,18.75,73576.3,1.75,0.67,0.75,0,*40
1501192965.69,5009,18.75,73578.8,1.75,0.79,0.75,0,*4E
1501192966.9,5010,18.69,73574.3,1.75,0.75,0.79,0,*46
1501192968.11,5011,18.75,73576.5,1.75,0.67,0.75,0,*48
1501192969.32,5012,18.75,73574.5,1.75,0.67,0.75,0,*4B
1501192970.53,5013,18.75,73574.3,1.75,0.75,0.67,0,*4A
1501192971.73,5014,18.75,73576.0,1.75,0.63,0.67,0,*4A
1501192972.93,5015,18.75,73578.3,1.75,0.67,0.67,0,*4F
1501192974.14,5016,18.75,73576.5,1.75,0.75,0.67,0,*4F
1501192975.35,5017,18.75,73578.8,1.75,0.75,0.75,0,*4D
1501192976.59,5018,18.75,73572.5,1.73,0.79,0.75,0,*48
1501192977.82,5019,18.75,73578.8,1.73,0.75,0.67,0,*46
1501192979.05,5020,18.69,73574.0,1.73,0.75,0.75,0,*4F
1501192980.28,5021,18.69,73572.8,1.73,0.75,0.67,0,*4D
1501192981.51,5022,18.75,73574.5,1.73,0.67,0.75,0,*4E
1501192982.73,5023,18.75,73576.5,1.73,0.67,0.67,0,*4C
1501192983.95,5024,18.75,73578.3,1.73,0.67,0.67,0,*4B
1501192985.19,5025,18.75,73578.0,1.73,0.63,0.55,0,*4F
1501192986.42,5026,18.75,73576.0,1.73,0.75,0.63,0,*4E
1501192987.64,5027,18.75,73576.5,1.73,0.75,0.67,0,*4B
1501192988.87,5028,18.75,73578.8,1.73,0.67,0.67,0,*47
1501192990.09,5029,18.75,73576.5,1.73,0.67,0.67,0,*46
1501192991.32,5030,18.75,73574.3,1.73,0.75,0.67,0,*4D
1501192992.55,5031,18.75,73574.5,1.73,0.55,0.67,0,*4E
1501192993.79,5032,18.75,73572.8,1.71,0.51,0.51,0,*4E
1501192995.02,5033,18.75,73572.8,1.73,0.63,0.55,0,*48
1501192996.26,5034,18.75,73576.0,1.73,0.63,0.55,0,*4F
1501192997.49,5035,18.75,73578.8,1.71,0.63,0.63,0,*49
1501192998.71,5036,18.69,73574.3,1.73,0.75,0.67,0,*4B
1501192999.95,5037,18.75,73574.3,1.71,0.63,0.71,0,*48
1501193001.18,5038,18.75,73574.3,1.71,0.63,0.63,0,*44
1501193002.41,5039,18.75,73574.8,1.71,0.59,0.59,0,*45
1501193003.65,5040,18.75,73574.3,1.71,0.59,0.59,0,*4B
1501193004.88,5041,18.75,73572.8,1.71,0.63,0.63,0,*4A
1501193006.11,5042,18.75,73572.5,1.71,0.71,0.71,0,*49
1501193007.35,5043,18.75,73576.5,1.71,0.59,0.51,0,*40
1501193008.57,5044,18.75,73576.8,1.73,0.67,0.63,0,*49
1501193009.8,5045,18.75,73576.0,1.73,0.67,0.67,0,*4C
1501193011.03,5046,18.75,73578.0,1.71,0.63,0.71,0,*4E
1501193012.27,5047,18.75,73576.0,1.71,0.59,0.51,0,*44
1501193013.5,5048,18.75,73578.5,1.71,0.59,0.47,0,*4C
1501193014.74,5049,18.75,73574.8,1.71,0.59,0.59,0,*42
1501193015.97,5050,18.75,73576.3,1.71,0.59,0.59,0,*4A
1501193017.21,5051,18.75,73574.3,1.71,0.51,0.51,0,*4B
1501193018.45,5052,18.75,73576.5,1.71,0.51,0.59,0,*40
1501193019.68,5053,18.75,73576.5,1.71,0.59,0.59,0,*49
1501193020.91,5054,18.75,73578.3,1.71,0.63,0.63,0,*4E
1501193022.15,5055,18.75,73578.3,1.71,0.59,0.63,0,*46
1501193023.38,5056,18.75,73576.8,1.71,0.51,0.51,0,*4C
1501193024.62,5057,18.69,73574.0,1.71,0.59,0.51,0,*45
1501193025.86,5058,18.75,73578.8,1.71,0.51,0.51,0,*42
1501193027.1,5059,18.69,73572.0,1.71,0.47,0.47,0,*43
1501193028.33,5060,18.69,73572.0,1.71,0.51,0.51,0,*49
1501193029.54,5061,18.75,73576.8,1.69,0.51,0.51,0,*41
1501193030.75,5062,18.69,73572.0,1.69,0.51,0.47,0,*45
1501193031.96,5063,18.75,73574.5,1.69,0.59,0.59,0,*43
1501193033.17,5064,18.69,73572.3,1.69,0.59,0.59,0,*44
1501193034.38,5065,18.75,73574.8,1.69,0.59,0.59,0,*45
1501193035.58,5066,18.75,73572.8,1.69,0.63,0.63,0,*46
1501193036.79,5067,18.75,73574.0,1.69,0.63,0.63,0,*47
1501193038.0,5068,18.75,73572.8,1.69,0.71,0.63,0,*4B
1501193039.2,5069,18.75,73574.3,1.69,0.63,0.71,0,*4A
1501193040.41,5070,18.75,73572.8,1.69,0.63,0.63,0,*41
1501193041.64,5071,18.75,73574.5,1.67,0.59,0.55,0,*42
1501193042.85,5072,18.69,73572.0,1.69,0.63,0.59,0,*4A
1501193044.06,5073,18.69,73574.5,1.69,0.59,0.59,0,*42
1501193045.29,5074,18.69,73576.0,1.67,0.55,0.47,0,*48
1501193046.53,5075,18.75,73572.5,1.67,0.59,0.55,0,*46
1501193047.77,5076,18.75,73576.8,1.67,0.55,0.55,0,*49
1501193049.0,5077,18.69,73574.3,1.67,0.55,0.55,0,*48
1501193050.24,5078,18.75,73576.0,1.67,0.47,0.47,0,*47
1501193051.45,5079,18.69,73574.3,1.69,0.51,0.47,0,*4F
1501193052.64,5080,18.69,73572.5,1.69,0.47,0.43,0,*4A
1501193053.85,5081,18.69,73574.8,1.67,0.47,0.43,0,*45
1501193055.08,5082,18.69,73574.3,1.67,0.47,0.47,0,*42
1501193056.31,5083,18.75,73576.5,1.67,0.59,0.59,0,*43
1501193057.54,5084,18.75,73578.5,1.67,0.59,0.55,0,*48
1501193058.77,5085,18.69,73576.3,1.67,0.59,0.67,0,*48
1501193060.01,5086,18.75,73576.3,1.67,0.55,0.47,0,*45
1501193061.24,5087,18.75,73576.3,1.67,0.47,0.55,0,*44
1501193062.48,5088,18.75,73578.8,1.67,0.55,0.59,0,*44
1501193063.72,5089,18.69,73572.3,1.67,0.55,0.59,0,*45
1501193064.95,5090,18.69,73572.8,1.67,0.59,0.59,0,*41
1501193066.16,5091,18.75,73576.3,1.65,0.59,0.59,0,*42
1501193067.39,5092,18.75,73574.5,1.67,0.59,0.55,0,*4F
1501193068.6,5093,18.69,73576.0,1.65,0.59,0.55,0,*4C
1501193069.83,5094,18.69,73574.5,1.67,0.55,0.47,0,*46
1501193071.07,5095,18.75,73576.0,1.67,0.55,0.47,0,*47
1501193072.31,5096,18.75,73574.5,1.67,0.55,0.59,0,*4B
1501193073.52,5097,18.75,73576.3,1.65,0.59,0.59,0,*44
1501193074.72,5098,18.75,73576.8,1.65,0.59,0.55,0,*47
1501193075.92,5099,18.75,73576.5,1.65,0.59,0.67,0,*47
1501193077.12,5100,18.69,73578.8,1.65,0.67,0.67,0,*4B
1501193078.32,5101,18.75,73576.8,1.65,0.59,0.59,0,*4A
1501193079.55,5102,18.75,73578.3,1.67,0.67,0.59,0,*46
1501193080.78,5103,18.75,73578.0,1.67,0.67,0.59,0,*47
1501193082.0,5104,18.69,73576.8,1.67,0.59,0.67,0,*40
1501193083.23,5105,18.75,73576.8,1.67,0.71,0.67,0,*4B
1501193084.46,5106,18.75,73576.8,1.67,0.67,0.59,0,*42
1501193085.66,5107,18.69,73572.8,1.65,0.67,0.59,0,*41
1501193086.86,5108,18.75,73578.0,1.65,0.67,0.71,0,*44
1501193088.06,5109,18.75,73576.3,1.65,0.71,0.71,0,*42
1501193089.26,5110,18.75,73578.8,1.65,0.67,0.71,0,*4D
1501193090.46,5111,18.75,73576.3,1.65,0.67,0.67,0,*4B
1501193091.68,5112,18.69,73570.8,1.67,0.67,0.67,0,*4A
1501193092.87,5113,18.75,73576.8,1.65,0.67,0.67,0,*49
1501193094.07,5114,18.75,73576.8,1.65,0.67,0.67,0,*4E
1501193095.28,5115,18.75,73576.5,1.65,0.79,0.71,0,*47
1501193096.51,5116,18.75,73578.3,1.67,0.71,0.71,0,*4E
1501193097.74,5117,18.69,73574.0,1.67,0.55,0.67,0,*4E
1501193098.94,5118,18.75,73578.5,1.65,0.59,0.59,0,*42
1501193100.15,5119,18.69,73574.3,1.65,0.67,0.59,0,*4E
1501193101.34,5120,18.75,73578.0,1.65,0.67,0.67,0,*49
1501193102.54,5121,18.75,73578.5,1.65,0.67,0.59,0,*45
1501193103.75,5122,18.75,73576.5,1.65,0.59,0.59,0,*4B
1501193104.97,5123,18.69,73572.0,1.67,0.71,0.67,0,*4F
1501193106.2,5124,18.75,73576.0,1.67,0.67,0.67,0,*4F
1501193107.42,5125,18.75,73578.0,1.67,0.67,0.59,0,*43
1501193108.65,5126,18.69,73574.3,1.67,0.67,0.67,0,*4D
1501193109.87,5127,18.69,73572.8,1.67,0.67,0.67,0,*4C
1501193111.1,5128,18.75,73576.0,1.67,0.71,0.71,0,*43
1501193112.3,5129,18.75,73576.8,1.65,0.71,0.71,0,*40
1501193113.5,5130,18.69,73574.3,1.65,0.67,0.67,0,*48
1501193114.73,5131,18.75,73578.0,1.67,0.59,0.59,0,*4B
1501193115.97,5132,18.75,73576.5,1.67,0.55,0.55,0,*48
1501193117.21,5133,18.69,73574.8,1.67,0.55,0.47,0,*4A
1501193118.41,5134,18.75,73576.0,1.65,0.59,0.55,0,*40
1501193119.62,5135,18.75,73578.3,1.65,0.59,0.55,0,*41
1501193120.82,5136,18.75,73578.5,1.65,0.59,0.55,0,*42
1501193122.01,5137,18.75,73578.8,1.65,0.47,0.43,0,*4B
1501193123.22,5138,18.75,73578.5,1.65,0.55,0.55,0,*40
1501193124.43,5139,18.75,73578.3,1.65,0.55,0.47,0,*42
1501193125.62,5140,18.75,73576.3,1.61,0.55,0.43,0,*4C
1501193126.83,5141,18.75,73576.0,1.65,0.55,0.55,0,*4E
1501193128.05,5142,18.69,73576.8,1.61,0.55,0.51,0,*4D
1501193129.25,5143,18.75,73576.5,1.65,0.67,0.59,0,*41
1501193130.45,5144,18.69,73576.0,1.65,0.67,0.79,0,*44
1501193131.65,5145,18.69,73576.0,1.61,0.67,0.67,0,*4E
1501193132.86,5146,18.75,73578.3,1.65,0.71,0.71,0,*49
1501193134.05,5147,18.75,73578.5,1.65,0.59,0.67,0,*45
1501193135.26,5148,18.75,73578.8,1.65,0.59,0.59,0,*47
1501193136.48,5149,18.75,73576.3,1.61,0.55,0.55,0,*42
1501193137.68,5150,18.69,73578.0,1.65,0.59,0.59,0,*4E
1501193138.88,5151,18.75,73576.0,1.65,0.59,0.67,0,*42
1501193140.09,5152,18.69,73576.0,1.65,0.55,0.59,0,*40
1501193141.31,5153,18.69,73576.0,1.61,0.55,0.51,0,*4D
1501193142.52,5154,18.75,73576.3,1.65,0.59,0.55,0,*46
1501193143.72,5155,18.75,73578.3,1.65,0.59,0.55,0,*47
1501193144.94,5156,18.69,73574.5,1.61,0.55,0.51,0,*48
1501193146.15,5157,18.69,73574.5,1.65,0.51,0.55,0,*4D
1501193147.36,5158,18.75,73576.3,1.61,0.63,0.55,0,*47
1501193148.56,5159,18.69,73574.3,1.65,0.59,0.67,0,*4A
1501193149.77,5160,18.69,73576.8,1.61,0.63,0.55,0,*4C
1501193150.97,5161,18.69,73578.0,1.65,0.67,0.67,0,*4C
1501193152.18,5162,18.69,73576.0,1.61,0.55,0.55,0,*4B
1501193153.4,5163,18.75,73576.3,1.61,0.55,0.63,0,*4F
1501193154.61,5164,18.69,73578.8,1.61,0.63,0.55,0,*48
1501193155.83,5165,18.69,73578.8,1.61,0.55,0.55,0,*4C
1501193157.04,5166,18.75,73578.5,1.65,0.55,0.55,0,*4B
1501193158.25,5167,18.69,73578.0,1.65,0.59,0.59,0,*4A
1501193159.45,5168,18.75,73576.8,1.65,0.59,0.59,0,*45
1501193160.66,5169,18.69,73576.0,1.65,0.59,0.55,0,*48
1501193161.82,5170,18.69,73576.5,1.61,0.43,0.43,0,*48
1501193162.97,5171,18.75,73576.3,1.61,0.43,0.43,0,*49
1501193164.16,5172,18.75,73576.0,1.61,0.41,0.43,0,*48
1501193165.37,5173,18.75,73578.0,1.61,0.51,0.51,0,*4B
1501193166.53,5174,18.69,73578.0,1.61,0.43,0.43,0,*4C
1501193167.71,5175,18.75,73578.5,1.61,0.43,0.51,0,*4E
1501193168.89,5176,18.75,73578.8,1.61,0.43,0.33,0,*49
1501193170.07,5177,18.69,73578.0,1.65,0.55,0.43,0,*4C
1501193171.29,5178,18.75,73576.5,1.61,0.63,0.55,0,*45
1501193172.52,5179,18.69,73574.3,1.59,0.71,0.63,0,*49
1501193173.76,5180,18.69,73576.3,1.59,0.71,0.71,0,*4C
1501193174.97,5181,18.75,73578.5,1.61,0.75,0.75,0,*46
1501193176.21,5182,18.75,73580.0,1.59,0.63,0.71,0,*4D
1501193177.41,5183,18.75,73576.5,1.61,0.67,0.63,0,*40
1501193178.62,5184,18.69,73578.5,1.61,0.67,0.63,0,*47
1501193179.82,5185,18.75,73578.8,1.65,0.67,0.59,0,*4B
1501193181.02,5186,18.69,73576.5,1.61,0.63,0.67,0,*45
1501193182.23,5187,18.75,73578.3,1.61,0.67,0.63,0,*44
1501193183.43,5188,18.69,73578.8,1.61,0.67,0.67,0,*4F
1501193184.63,5189,18.69,73578.5,1.65,0.71,0.71,0,*4A
1501193185.84,5190,18.69,73578.3,1.61,0.67,0.75,0,*45
1501193187.04,5191,18.75,73582.0,1.61,0.67,0.67,0,*47
1501193188.25,5192,18.75,73576.5,1.61,0.67,0.55,0,*45
1501193189.44,5193,18.69,73576.5,1.65,0.67,0.67,0,*41
1501193190.65,5194,18.69,73576.0,1.61,0.67,0.75,0,*41
1501193191.85,5195,18.75,73576.3,1.65,0.67,0.79,0,*48
1501193193.06,5196,18.69,73578.8,1.65,0.79,0.79,0,*44
1501193194.26,5197,18.69,73576.8,1.65,0.79,0.79,0,*45
1501193195.47,5198,18.75,73578.5,1.65,0.79,0.79,0,*4A
1501193196.68,5199,18.69,73578.5,1.65,0.83,0.83,0,*4B
1501193197.89,5200,18.69,73576.0,1.61,0.83,0.79,0,*49
1501193199.1,5201,18.69,73578.0,1.65,0.71,0.83,0,*44
1501193200.31,5202,18.69,73578.5,1.61,0.75,0.79,0,*42
1501193201.53,5203,18.69,73576.8,1.65,0.91,0.91,0,*4B
1501193202.74,5204,18.69,73578.5,1.61,0.79,0.79,0,*48
1501193203.96,5205,18.75,73580.3,1.61,0.79,0.75,0,*45
1501193205.17,5206,18.75,73582.8,1.65,0.79,0.79,0,*4E
1501193206.38,5207,18.75,73580.3,1.65,0.79,0.83,0,*4A
1501193207.58,5208,18.69,73578.8,1.61,0.67,0.75,0,*47
1501193208.79,5209,18.69,73574.3,1.65,0.71,0.79,0,*49
1501193209.99,5210,18.69,73580.5,1.65,0.71,0.71,0,*49
1501193211.2,5211,18.69,73576.5,1.65,0.79,0.79,0,*48
1501193212.4,5212,18.75,73582.0,1.61,0.67,0.67,0,*4F
1501193213.61,5213,18.69,73578.3,1.61,0.67,0.63,0,*4A
1501193214.81,5214,18.69,73576.5,1.61,0.67,0.75,0,*4A
1501193216.03,5215,18.75,73582.3,1.61,0.83,0.75,0,*41
1501193217.24,5216,18.75,73582.3,1.65,0.71,0.71,0,*4F
1501193218.44,5217,18.69,73580.5,1.65,0.79,0.79,0,*4E
1501193219.66,5218,18.75,73580.3,1.65,0.91,0.83,0,*42
1501193220.87,5219,18.69,73580.5,1.65,0.83,0.83,0,*40
1501193222.08,5220,18.75,73582.8,1.65,0.83,0.83,0,*4A
1501193223.29,5221,18.75,73580.5,1.65,0.83,0.83,0,*4B
1501193224.49,5222,18.69,73578.3,1.65,0.71,0.79,0,*40
1501193225.7,5223,18.69,73578.3,1.65,0.79,0.79,0,*49
1501193226.9,5224,18.75,73582.3,1.65,0.83,0.79,0,*4B
1501193228.11,5225,18.75,73582.8,1.65,0.79,0.71,0,*47
1501193229.32,5226,18.75,73580.5,1.65,0.79,0.71,0,*44
1501193230.53,5227,18.75,73582.8,1.65,0.59,0.59,0,*4D
1501193231.73,5228,18.69,73576.5,1.65,0.59,0.59,0,*42
1501193232.94,5229,18.69,73580.8,1.65,0.59,0.55,0,*4F
1501193234.15,5230,18.69,73578.5,1.65,0.59,0.55,0,*47
1501193235.34,5231,18.69,73578.5,1.65,0.59,0.67,0,*47
1501193236.55,5232,18.75,73580.0,1.65,0.59,0.59,0,*49
1501193237.76,5233,18.69,73578.8,1.65,0.55,0.59,0,*44
1501193238.97,5234,18.75,73582.5,1.65,0.59,0.55,0,*43
1501193240.16,5235,18.69,73578.5,1.65,0.67,0.67,0,*4E
1501193241.38,5236,18.69,73578.3,1.61,0.55,0.55,0,*49
1501193242.6,5237,18.69,73576.3,1.61,0.55,0.55,0,*48
1501193243.81,5238,18.69,73578.3,1.61,0.51,0.51,0,*47
1501193245.03,5239,18.75,73580.0,1.61,0.51,0.51,0,*46
1501193246.24,5240,18.69,73578.0,1.61,0.51,0.51,0,*48
1501193247.46,5241,18.69,73580.8,1.61,0.51,0.55,0,*4D
1501193248.67,5242,18.69,73576.5,1.61,0.51,0.51,0,*4A
1501193249.87,5243,18.69,73580.3,1.65,0.67,0.59,0,*42
1501193251.09,5244,18.69,73580.5,1.61,0.55,0.63,0,*49
1501193252.27,5245,18.69,73580.5,1.61,0.43,0.51,0,*4E
1501193253.46,5246,18.75,73580.5,1.61,0.51,0.43,0,*4D
1501193254.64,5247,18.75,73582.3,1.61,0.43,0.51,0,*4C
1501193255.85,5248,18.69,73580.5,1.61,0.51,0.51,0,*40
1501193257.09,5249,18.69,73580.5,1.59,0.41,0.41,0,*4A
1501193258.33,5250,18.69,73578.8,1.59,0.51,0.47,0,*45
1501193259.57,5251,18.69,73580.0,1.59,0.51,0.51,0,*43
1501193260.81,5252,18.69,73580.5,1.59,0.51,0.59,0,*48
1501193262.05,5253,18.69,73580.5,1.59,0.47,0.51,0,*46
1501193263.29,5254,18.75,73582.0,1.59,0.47,0.47,0,*46
1501193264.53,5255,18.75,73582.8,1.59,0.51,0.47,0,*40
1501193265.77,5256,18.69,73580.0,1.59,0.47,0.47,0,*44
1501193267.02,5257,18.69,73580.0,1.59,0.47,0.47,0,*45
1501193268.25,5258,18.75,73584.0,1.59,0.59,0.51,0,*42
1501193269.49,5259,18.69,73582.5,1.59,0.59,0.59,0,*4B
1501193270.73,5260,18.69,73582.3,1.59,0.51,0.51,0,*41
1501193271.97,5261,18.69,73582.3,1.59,0.59,0.59,0,*40
1501193273.21,5262,18.75,73582.0,1.59,0.59,0.59,0,*43
1501193274.45,5263,18.69,73580.5,1.59,0.47,0.51,0,*45
1501193275.69,5264,18.69,73578.3,1.59,0.47,0.51,0,*42
1501193276.93,5265,18.69,73580.8,1.59,0.51,0.51,0,*44
1501193278.17,5266,18.69,73580.0,1.59,0.41,0.47,0,*41
1501193279.38,5267,18.69,73578.3,1.57,0.47,0.41,0,*4E
1501193280.62,5268,18.69,73580.0,1.59,0.47,0.47,0,*49
1501193281.83,5269,18.75,73580.8,1.57,0.47,0.47,0,*46
1501193283.04,5270,18.69,73580.5,1.57,0.47,0.47,0,*4E
1501193284.28,5271,18.69,73582.5,1.59,0.47,0.47,0,*41
1501193285.5,5272,18.69,73580.5,1.57,0.51,0.47,0,*4B
1501193286.74,5273,18.69,73578.8,1.59,0.47,0.51,0,*44
1501193287.95,5274,18.69,73580.5,1.57,0.47,0.51,0,*4D
1501193289.16,5275,18.69,73580.0,1.57,0.51,0.51,0,*4B
1501193290.37,5276,18.69,73582.5,1.57,0.51,0.51,0,*48
1501193291.58,5277,18.69,73576.5,1.57,0.51,0.51,0,*49
1501193292.79,5278,18.69,73580.3,1.57,0.51,0.59,0,*4E
1501193294.03,5279,18.69,73580.8,1.59,0.59,0.51,0,*41
1501193295.23,5280,18.69,73582.3,1.57,0.63,0.63,0,*41
1501193296.44,5281,18.69,73582.0,1.57,0.75,0.75,0,*40
1501193297.65,5282,18.69,73576.3,1.57,0.63,0.63,0,*43
1501193298.86,5283,18.69,73578.8,1.57,0.71,0.71,0,*42
1501193300.09,5284,18.69,73576.5,1.59,0.63,0.63,0,*4B
1501193301.33,5285,18.69,73578.8,1.59,0.59,0.51,0,*42
1501193302.54,5286,18.69,73580.0,1.57,0.51,0.51,0,*47
1501193303.75,5287,18.75,73580.8,1.57,0.41,0.47,0,*40
1501193304.96,5288,18.69,73580.0,1.57,0.51,0.47,0,*4E
1501193306.17,5289,18.69,73582.3,1.57,0.47,0.47,0,*48
1501193307.38,5290,18.69,73580.5,1.57,0.51,0.59,0,*48
1501193308.62,5291,18.69,73582.3,1.59,0.59,0.51,0,*47
1501193309.83,5292,18.69,73582.0,1.57,0.59,0.59,0,*42
1501193311.04,5293,18.69,73580.0,1.57,0.59,0.59,0,*43
1501193312.25,5294,18.69,73582.3,1.57,0.59,0.51,0,*4C
1501193313.46,5295,18.69,73580.5,1.57,0.51,0.51,0,*45
1501193314.67,5296,18.69,73578.5,1.57,0.51,0.47,0,*41
1501193315.88,5297,18.69,73582.3,1.57,0.51,0.47,0,*40
1501193317.09,5298,18.69,73582.3,1.57,0.51,0.51,0,*48
1501193318.3,5299,18.75,73584.0,1.57,0.63,0.59,0,*40
1501193319.51,5300,18.69,73576.0,1.57,0.59,0.51,0,*40
1501193320.75,5301,18.69,73576.0,1.55,0.47,0.55,0,*48
1501193322.0,5302,18.69,73580.3,1.55,0.55,0.55,0,*48
1501193323.24,5303,18.75,73582.8,1.55,0.47,0.47,0,*49
1501193324.42,5304,18.75,73582.8,1.55,0.43,0.43,0,*4E
1501193325.67,5305,18.69,73582.0,1.55,0.55,0.47,0,*4C
1501193326.91,5306,18.69,73580.3,1.55,0.55,0.59,0,*40
1501193328.16,5307,18.69,73580.8,1.55,0.55,0.47,0,*4E
1501193329.4,5308,18.69,73582.5,1.55,0.47,0.47,0,*42
1501193330.65,5309,18.69,73578.8,1.55,0.55,0.47,0,*40
1501193331.89,5310,18.75,73580.8,1.55,0.55,0.55,0,*4B
1501193333.13,5311,18.75,73584.3,1.55,0.47,0.47,0,*4A
1501193334.34,5312,18.69,73582.5,1.55,0.43,0.47,0,*4D
1501193335.53,5313,18.69,73580.0,1.53,0.43,0.47,0,*4A
1501193336.76,5314,18.69,73580.8,1.55,0.47,0.33,0,*4C
1501193337.95,5315,18.69,73580.5,1.55,0.43,0.43,0,*4E
1501193339.1,5316,18.69,73582.0,1.53,0.43,0.43,0,*4B
1501193340.34,5317,18.75,73586.3,1.55,0.37,0.37,0,*4C
1501193341.57,5318,18.69,73584.0,1.55,0.37,0.37,0,*43